Regional Weather Roundup
Issued by NWS

Home | Current Version | Previous Version | Graphics & Text | Print | Product List | Glossary On
Versions: 1 2 3 4 5 6 7 8 9 10 11 12 13 14 15 16 17 18 19 20 21 22 23 24 25 26 27 28 29 30 31 32 33 34 35 36 37 38 39 40 41 42 43 44 45 46 47 48 49 50
000
ASUS43 KDMX 301907
RWRIA

WEATHER ROUNDUP FOR IOWA
NATIONAL WEATHER SERVICE DES MOINES IA
200 PM CDT SAT AUG 30 2014

NOTE: "FAIR" INDICATES FEW OR NO CLOUDS BELOW 12,000 FEET WITH NO
SIGNIFICANT WEATHER AND/OR OBSTRUCTIONS TO VISIBILITY.

* - THESE STATIONS ARE NOT NWS STATIONS...THUS NOT UNDER NWS
QUALITY CONTROL.  THEY ALSO DO NOT REPORT WEATHER SUCH
AS PRECIPITATION OR FOG.

IAZ001>003-012>014-020>022-031>034-043>046-302000-
   NORTHWEST IOWA

CITY           SKY/WX    TMP DP  RH WIND       PRES   REMARKS
CARROLL *      PTSUNNY   75  66  73 W9        29.92S
CHEROKEE *     CLOUDY    70  64  83 W6        29.92S
DENISON *      MOSUNNY   72  64  78 W5        29.92S
LE MARS *      MOSUNNY   73  63  68 W9        29.93S
ORANGE CITY *  MOSUNNY   73  61  64 W3        29.92F
SHELDON *      MOSUNNY   73  64  73 VRB6      29.90F
SIOUX CITY     MOSUNNY   72  60  66 NW8       29.93F
SPENCER        MOSUNNY   77  64  64 N7        29.90F
STORM LAKE *   PTSUNNY   68  68 100 W13       29.93S
$$

IAZ055>058-069>071-079>083-090>094-302000-
   SOUTHWEST IOWA

CITY           SKY/WX    TMP DP  RH WIND       PRES   REMARKS
ATLANTIC *     CLOUDY    73  66  78 NW5G12    29.93F
AUDUBON *      MOSUNNY   77  70  78 CALM      29.94F
CLARINDA *     MOSUNNY   81  68  65 VRB5      29.94F HX  83
COUNCIL BLFS * MOSUNNY   77  70  78 VRB3      29.93F
CRESTON *      MOSUNNY   77  68  73 NW7G13    29.94S
HARLAN  *      MOSUNNY   73  68  83 VRB7      29.97S
LAMONI         MOSUNNY   82  68  62 W7        29.93S HX  85
RED OAK *      PTSUNNY   75  68  78 N6        29.94F
SHENANDOAH *   MOSUNNY   81  70  69 VRB3      29.93F HX  84
$$

IAZ047>049-059>061-072>074-084-302000-
   CENTRAL IOWA

CITY           SKY/WX    TMP DP  RH WIND       PRES   REMARKS
AMES           MOSUNNY   78  67  68 W9        29.91R HX  80
ANKENY *       PTSUNNY   77  68  73 NW7G15    29.90S
CHARITON *     PTSUNNY   79  70  73 NW6       29.92S HX  81
DES MOINES     MOSUNNY   82  69  64 NW8       29.90S HX  85
GRINNELL*      MOSUNNY   75  66  73 CALM      29.91F
KNOXVILLE *    PTSUNNY   77  68  73 NW5       29.90S
MARSHALLTOWN   PTSUNNY   78  67  68 W7        29.89S HX  80
PELLA *        MOSUNNY   79  68  69 CALM      29.92S HX  81
PERRY *        CLOUDY    73  68  83 W6        29.92S
$$

IAZ004>006-015-016-023>025-035-036-302000-
   NORTH CENTRAL IOWA

CITY           SKY/WX    TMP DP  RH WIND       PRES   REMARKS
ALGONA *       CLOUDY    72  66  83 W7        29.92R
CLARION *      PTSUNNY   73  66  78 VRB3      29.90F
ESTHERVILLE    PTSUNNY   73  65  75 NW3       29.90F
FORT DODGE *   CLOUDY    72  64  78 NW5       29.92S
MASON CITY     MOSUNNY   77  66  68 W10       29.90R
FOREST CITY *  MOSUNNY   75  64  69 W6        29.89S
IOWA FALLS *   PTSUNNY   73  66  78 NW3       29.92S
$$

IAZ007>011-017>019-026>030-037>042-050>054-066-302000-
   NORTHEAST IOWA

CITY           SKY/WX    TMP DP  RH WIND       PRES   REMARKS
CEDAR RAPIDS   CLOUDY    77  68  73 W7        29.89S
CHARLES CITY * MOSUNNY   77  64  65 NW6G14    29.88S
CLINTON *      CLOUDY    79  66  65 W14       29.90S HX  81
DECORAH *      CLOUDY    75  66  73 NW8       29.86R
DUBUQUE        MOSUNNY   77  67  71 W14       29.87S
MONTICELLO *   MOSUNNY   79  70  73 W9        29.87F HX  81
OELWEIN *      MOSUNNY   77  64  65 W12G20    29.88S
WATERLOO       MOSUNNY   78  66  66 W12       29.87S HX  80
$$

IAZ064-065-067-068-078-302000-
   EAST CENTRAL IOWA

CITY           SKY/WX    TMP DP  RH WIND       PRES   REMARKS
DAVENPORT      PTSUNNY   78  67  68 NW13      29.89S HX  80
IOWA CITY      CLOUDY    78  68  71 W9        29.90S HX  80
MT. PLEASANT * MOSUNNY   82  64  54 W7        29.90F HX  84
MUSCATINE *    MOSUNNY   82  68  61 W8        29.89R HX  85
QUAD CITIES    PTSUNNY   80  67  64 SW13      29.88S HX  82
$$

IAZ062-063-075>077-085>089-095>099-302000-
   SOUTHEAST IOWA

CITY           SKY/WX    TMP DP  RH WIND       PRES   REMARKS
BURLINGTON     PTSUNNY   81  69  67 VRB6      29.90S HX  84
FAIRFIELD *    MOSUNNY   79  68  69 NW8       29.91S HX  81
FORT MADISON * MOSUNNY   84  70  61 SW3       29.91F HX  88
KEOKUK *       MOSUNNY   82  70  65 W9        29.90S HX  86
OSKALOOSA *      N/A     77  68  73 NW6       29.92S
CENTERVILLE *  MOSUNNY   79  70  73 CALM      29.94S HX  81
OTTUMWA        PTSUNNY   76  66  71 W7        29.91S
WASHINGTON *   MOSUNNY   81  70  69 W10       29.90S HX  84
$$

ABBREVIATIONS USED IN REMARKS
   TC - TEMPERATURES IN CELSIUS
  WCI - WIND CHILL INDEX
   HX - HEAT INDEX
  VSB - VISIBILITY
$$



USA.gov is the U.S. government's official web portal to all federal, state and local government web resources and services.